Regional Weather Roundup
Issued by NWS

Home | Current Version | Previous Version | Graphics & Text | Print | Product List | Glossary On
Versions: 1 2 3 4 5 6 7 8 9 10 11 12 13 14 15 16 17 18 19 20 21 22 23 24 25 26 27 28 29 30 31 32 33 34 35 36 37 38 39 40 41 42 43 44 45 46 47 48 49 50
000
ASUS43 KOAX 231510
RWRNE

WEATHER ROUNDUP FOR NEBRASKA
NATIONAL WEATHER SERVICE OMAHA NE
900 AM CST THU NOV 23 2017

NOTES: SATELLITE DATA IS BEING USED TO AUGMENT CLOUD COVER ABOVE
       12000 FEET.
       "FAIR" INDICATES FEW OR NO CLOUDS BELOW 12,000 FEET WITH NO
       SIGNIFICANT WEATHER AND/OR OBSTRUCTIONS TO VISIBILITY.


NEZ001>004-019>022-054>056-231600-
NEBRASKA PANHANDLE

CITY           SKY/WX    TMP DP  RH WIND       PRES   REMARKS
SCOTTSBLUFF    CLOUDY    38  35  89 CALM      30.11R
ALLIANCE       CLOUDY    36  35  96 W9        30.08S WCI  29
CHADRON        CLOUDY    36  33  89 CALM      30.04F
GORDON         FAIR      41  36  82 SW9       30.03S
KIMBALL        CLOUDY    47  38  69 W12       30.15S
SIDNEY         CLOUDY    43  37  79 W6        30.14R
$$

NEZ057>060-069>072-079>082-231600-
SOUTHWEST NEBRASKA

CITY           SKY/WX    TMP DP  RH WIND       PRES   REMARKS
NORTH PLATTE   CLOUDY    39  37  92 W5        30.08F
IMPERIAL       CLOUDY    45  39  79 W7        30.11F
LEXINGTON      CLOUDY    41  37  83 W5        30.07F
MCCOOK         CLOUDY    43  39  86 W12       30.10S
OGALLALA       CLOUDY    41  37  86 W14       30.10S
$$

NEZ005>010-023>029-035>040-094-231600-
NORTH CENTRAL NEBRASKA

CITY           SKY/WX    TMP DP  RH WIND       PRES   REMARKS
VALENTINE      CLOUDY    44  39  82 SW10      30.00S
AINSWORTH      SUNNY     47  41  78 W14       30.00F
BROKEN BOW     SUNNY     44  37  76 CALM      30.04F
O`NEILL        CLOUDY    42  39  90 CALM      30.00S
ORD            CLOUDY    38  35  89 CALM      30.03S
THEDFORD       SUNNY     45  39  78 W8        30.05R
$$

NEZ041-046>049-061>064-073>077-083>087-231600-
SOUTH CENTRAL NEBRASKA

CITY           SKY/WX    TMP DP  RH WIND       PRES   REMARKS
GRAND ISLAND   SUNNY     45  38  76 W7        30.05S
AURORA         SUNNY     46  38  75 W3        30.05R
HASTINGS       SUNNY     44  35  70 W5        30.06S
HEBRON         SUNNY     43  34  70 CALM      30.06F
HOLDREGE       CLOUDY    45  38  77 W7        30.07S
KEARNEY        CLOUDY    44  36  73 W3        30.07R
YORK           SUNNY     45  39  81 W6        30.05R
$$

NEZ011>018-030>034-042>045-231600-
NORTHEAST NEBRASKA

CITY           SKY/WX    TMP DP  RH WIND       PRES   REMARKS
NORFOLK        SUNNY     40  36  86 CALM      30.01S
ALBION         SUNNY     44  38  78 CALM      30.02F
BLAIR          SUNNY     43  35  73 N8        30.01S
COLUMBUS       SUNNY     39  33  79 CALM      30.04S
FREMONT        SUNNY     38  33  81 W6        30.03S WCI  34
TEKAMAH        CLOUDY    38  30  73 CALM      30.02S
WAYNE          SUNNY     36  33  90 CALM      30.02S
$$

NEZ050>053-065>068-078-088>093-231600-
SOUTHEAST NEBRASKA

CITY           SKY/WX    TMP DP  RH WIND       PRES   REMARKS
LINCOLN        SUNNY     43  33  68 CALM      30.06R
OMAHA EPPLEY   PTSUNNY   40  31  70 N3        30.03R
BEATRICE       SUNNY     41  32  71 W3        30.05R
FALLS CITY     SUNNY     43  31  62 CALM      30.03S
NEBRASKA CITY  SUNNY     45  35  67 NW6       30.03R
PLATTSMOUTH    SUNNY     44  36  73 NW9       30.02S
$$

NEZ044-045-051>053-067-231600-
OMAHA AREA

CITY           SKY/WX    TMP DP  RH WIND       PRES   REMARKS
OMAHA EPPLEY   PTSUNNY   40  31  70 N3        30.03R
BLAIR          SUNNY     43  35  73 N8        30.01S
FREMONT        SUNNY     38  33  81 W6        30.03S WCI  34
MILLARD        SUNNY     40  33  76 CALM      30.03S
OFFUTT AFB     SUNNY     37  28  69 NW3       30.03R
PLATTSMOUTH    SUNNY     44  36  73 NW9       30.02S
WAHOO          FAIR      42  35  76 CALM      30.03R
$$




USA.gov is the U.S. government's official web portal to all federal, state and local government web resources and services.